CZ-6A DEB

Satellite information

Favourite Embed

Satellite Type and Status

DEBRISIN ORBIT

Key statistics

Satellite CZ-6A DEB at a glance.

Uptime

494

Days in orbit

Revolutions

≈ 14.2

Per day

Orbit

LEO

Low Earth Orbit

Inclination

89.0

Latest

Satellite identification and parameters

Extended collection of information and parameters for CZ-6A DEB.

Object identification

Identified? True

Debris? True

Object name: CZ-6A DEB

International designator: 2024-140CX

Object number (NORAD): 60694

Object ID (CCSDS): 60694

Country: PEOPLES REPUBLIC OF CHINA (PRC)

Current information (Y/N): Y

RCS size: MEDIUM

Orbital parameters

Period: 101.613 minutes

Inclination: 89.0129 deg

SMA: 7213.185 km

Apoapsis: 880.246 km

Periapsis: 789.855 km

RAAN: 296.8072 deg

Eccentricy: 0.00626568

Argument of periapsis: 89.7703 deg

Mean anomaly: 271.0665 deg

Mean motion: 14.1713795 rev/day

Mean motion (dot): 0.00001682 rev/day2

B* drag term: 0.00081254336 1/REarth

Two-line elements (TLE)

Creation date: Dec. 12, 2025, 10:14 a.m.

Reference frame: TEME

Reference center: EARTH

Epoch: Dec. 12, 2025, 7:11 a.m. UTC

TLE line 0: 0 CZ-6A DEB

TLE line 1: 1 60694U 24140CX 25346.29968438 .00001682 00000-0 81254-3 0 9995

TLE line 2: 2 60694 89.0129 296.8072 0062657 89.7703 271.0665 14.17137950 69437

Live tracking on map

Real-time ground track for satellite CZ-6A DEB.

In-orbit conjunctions

A list of the most updated potential collisions computed for object CZ-6A DEB.

Target Orbit TCA Probability of collision Miss distance Type
SL-3 R/B LEO 2025-10-01 01:06:18 0.004724262 52.0 (m) ROCKET BODY
COSMOS 1275 DEB LEO 2025-08-25 07:35:17 0.0001594555 648.0 (m) DEBRIS
DELTA 1 DEB SSO 2024-12-06 04:05:55 0.0002783736 210.0 (m) DEBRIS
FENGYUN 1C DEB SSO 2024-11-03 10:58:13 0.0001539255 339.0 (m) DEBRIS
THOR ABLESTAR DEB LEO 2024-10-19 16:03:55 0.0005320526 817.0 (m) DEBRIS

Associated space launch

18 Low Earth Orbit communication satellites with Ku, Q and V band payloads for the G60 constellation operated by Shanghai Spacecom Satellite Technology (SSST) with funding backed by the Shanghai local government. Initial constellation will consist of 1296 satellites by 2027 with long term plans to expand it to 12000 satellites.

CZ-6A DEB was lifted into orbit during the mission ‘Long March 6A | G60 Polar Group 01’, on board a Long March 6A space rocket.

The launch took place on Aug. 6, 2024, 6:42 a.m. from Launch Complex 9A.

For more information about the launch, click the button.

Launch to space Long March 6A | G60 Polar Group 01
Long March 6A | G60 Polar Group 01

Agency: N/A

Status: Launch Successful

Launch date: Aug. 6, 2024, 6:42 a.m. UTC

Rocket: Long March 6A

Launch pad: Launch Complex 9A

Location: Taiyuan Satellite Launch Center, People's Republic of China

...

Latest news about this satellite

News about space launch
Brightness of first Chinese broadband constellation satellites alarms astronomers

The first satellites of a Chinese broadband constellation are significantly brighter than those of Western systems, posing a new challenge for astronomers.

News about space launch
Chinese rocket stage breaks up into cloud of more than 700 pieces of space debris

HELSINKI — A Chinese Long March 6A rocket’s upper stage has fragmented into a cloud of over 700 pieces of space debris, adding to concerns about long-term orbital safety. China […]

News about space launch
China's Thousand Sails Megaconstellation Kicks Off with Dangerous Debris Field

China's Thousand Sails Megaconstellation Kicks Off with Dangerous Debris Field


Newsletter sign-up

Weekly statistics, charts and insights to help you stay on top of the space industry.